Terug naar catalogus

CZ-3B R/B

ActiefHEO
NORAD 45808·ROCKET BODY·🇨🇳 China

Gelanceerd Jun 23, 2020 vanaf Xichang Satellite Launch Center

Loading…

Volgende Passages (komende 24 uur)

TLE

VersSource: Space-Track

Epoch: Sep 14, 2026, 18:49 UTC

1 45808U 20040B   26257.78409346  .00015893  00000-0  11020-2 0  9996
2 45808  28.2906 277.9266 6455572 166.9968 224.7686  3.42061021 64242

Volg CZ-3B R/B in realtime met AllMySat

Download on the App Store